Stations météo

réclame
Mon MeteoGroup
Badajoz/Talavera La Real, Espagne (8330): Température de l'air & dewpoint: 12.01.2019 13:00:00 - 18.01.2019 13:00:00 (CET)Badajoz/Talavera La Real, Espagne (8330): Vitesse du vent: 12.01.2019 13:00:00 - 18.01.2019 13:00:00 (CET)Badajoz/Talavera La Real, Espagne (8330): Direction du vent: 12.01.2019 13:00:00 - 18.01.2019 13:00:00 (CET)Badajoz/Talavera La Real, Espagne (8330): reduced air pressure: 12.01.2019 13:00:00 - 18.01.2019 13:00:00 (CET)Badajoz/Talavera La Real, Espagne (8330): visibility: 12.01.2019 13:00:00 - 18.01.2019 13:00:00 (CET)Badajoz/Talavera La Real, Espagne (8330): Quantités de précipitations: 12.01.2019 13:00:00 - 18.01.2019 13:00:00 (CET)
Date & Time tt [°C] td [°C] ff [km/h] ff [knt] dd ppp [hPa] vv [km] rr [mm]
18.01.2019 13:00:00 8,6 3,4 4 2 W 1022,5 20 -
18.01.2019 12:00:00 5,5 3,3 2 1 W 1023,5 - 0,0
18.01.2019 11:00:00 3,8 2,6 4 2 NNW 1023,7 - 0,0
18.01.2019 10:00:00 0,5 0,2 2 1 E 1023,3 7 -
18.01.2019 09:00:00 -0,8 -1,5 4 2 SE 1022,5 - 0,0
18.01.2019 08:00:00 -0,5 -1,2 2 1 S 1022,6 - 0,0
18.01.2019 07:00:00 0,9 -0,1 2 1 S 1022,1 20 -
18.01.2019 06:00:00 1,4 0,7 4 2 W 1022,2 - 0,0
18.01.2019 05:00:00 1,8 0,9 4 2 W 1022,2 - 0,0
18.01.2019 04:00:00 2,9 1,1 2 1 W 1021,9 - -
18.01.2019 03:00:00 4,1 2,1 4 2 WSW 1022,0 - 0,0
18.01.2019 02:00:00 4,5 2,5 5 3 W 1022,2 - 0,0
18.01.2019 01:00:00 4,4 2,9 2 1 SW 1022,1 - -
18.01.2019 00:00:00 5,6 3,6 5 3 W 1022,1 - 0,0
17.01.2019 23:00:00 6,2 3,9 8 4 W 1021,8 - 0,0
17.01.2019 22:00:00 6,4 4,4 4 2 W 1021,4 - -
17.01.2019 21:00:00 6,9 4,2 2 1 NW 1020,8 - 0,0
17.01.2019 20:00:00 9,2 4,8 4 2 WSW 1020,0 - 0,0
17.01.2019 19:00:00 10,5 5,3 8 4 NE 1019,6 25 -
17.01.2019 18:00:00 11,9 5,3 8 4 NNE 1019,0 - 0,0
17.01.2019 17:00:00 13,1 5,3 11 6 NNE 1018,7 - 0,0
17.01.2019 16:00:00 14,0 5,4 11 6 N 1018,4 30 -
17.01.2019 15:00:00 13,0 5,9 8 4 NNW 1018,6 - 0,0
17.01.2019 14:00:00 12,5 6,7 5 3 NNW 1018,9 - 0,0
17.01.2019 13:00:00 11,3 6,8 8 4 NW 1020,1 20 -
17.01.2019 12:00:00 10,1 6,8 4 2 NW 1020,8 - 0,0
17.01.2019 11:00:00 8,4 6,9 5 3 NW 1021,1 - 0,0
17.01.2019 10:00:00 7,7 7,4 4 2 WNW 1020,6 10 -
17.01.2019 09:00:00 7,5 7,2 4 2 W 1019,9 - 0,0
17.01.2019 08:00:00 7,1 6,7 5 3 W 1019,5 - 0,0
17.01.2019 07:00:00 7,6 7,0 4 2 W 1019,0 5 -
17.01.2019 06:00:00 7,7 7,1 2 1 W 1019,0 - 0,0
17.01.2019 05:00:00 7,6 7,0 4 2 WSW 1019,1 - 0,0
17.01.2019 04:00:00 7,4 6,8 4 2 SSW 1019,4 - -
17.01.2019 03:00:00 7,8 6,7 2 1 ESE 1019,5 - 0,0
17.01.2019 02:00:00 7,7 6,8 4 2 NNW 1019,8 - 0,0
17.01.2019 01:00:00 8,2 6,8 2 1 W 1019,8 - -
17.01.2019 00:00:00 8,4 7,0 2 1 SW 1019,9 - 0,0
16.01.2019 23:00:00 8,7 7,0 2 1 W 1019,8 - 0,0
16.01.2019 22:00:00 9,2 7,1 4 2 ENE 1019,6 - -
16.01.2019 21:00:00 9,5 7,1 2 1 ESE 1019,4 - 0,0
16.01.2019 20:00:00 9,9 7,3 4 2 ESE 1019,5 - 0,0
16.01.2019 19:00:00 10,3 7,4 5 3 ENE 1019,3 10 -
16.01.2019 18:00:00 11,6 7,1 4 2 NNE 1019,1 - 0,0
16.01.2019 17:00:00 12,2 6,9 2 1 W 1019,0 - 0,0
16.01.2019 16:00:00 12,1 7,2 4 2 NNE 1019,0 15 -
16.01.2019 15:00:00 11,2 7,5 4 2 NNW 1019,4 - 0,0
16.01.2019 14:00:00 10,7 7,4 5 3 NNW 1020,2 - 0,0
16.01.2019 13:00:00 8,6 6,4 4 2 N 1021,1 5 -
16.01.2019 12:00:00 7,6 5,7 2 1 N 1021,9 - 0,0
16.01.2019 11:00:00 6,1 5,1 4 2 E 1021,9 - 0,0
16.01.2019 10:00:00 4,6 3,9 2 1 ESE 1021,5 4,0 -
16.01.2019 09:00:00 4,0 3,4 4 2 N 1021,5 - 0,0
16.01.2019 08:00:00 3,9 3,5 2 1 ENE 1021,1 - 0,0
16.01.2019 07:00:00 3,7 3,1 4 2 ENE 1021,0 6 -
16.01.2019 06:00:00 3,5 3,1 2 1 ENE 1021,2 - 0,0
16.01.2019 05:00:00 2,9 2,6 0 0 N 1021,5 - 0,0
16.01.2019 04:00:00 2,2 1,9 2 1 WNW 1021,8 - -
16.01.2019 03:00:00 1,4 1,0 4 2 W 1021,8 - 0,0
16.01.2019 02:00:00 1,9 1,2 2 1 SW 1022,0 - 0,0
16.01.2019 01:00:00 2,4 1,4 4 2 NNE 1022,3 - -
16.01.2019 00:00:00 3,9 3,2 2 1 SE 1022,2 - 0,0
15.01.2019 23:00:00 4,3 3,0 0 0 N 1021,9 - 0,0
15.01.2019 22:00:00 6,5 4,2 4 2 W 1021,5 - -
15.01.2019 21:00:00 7,1 4,7 4 2 SW 1021,2 - 0,0
15.01.2019 20:00:00 8,0 4,9 4 2 W 1020,9 - 0,0
15.01.2019 19:00:00 10,2 5,4 4 2 WSW 1020,3 - -
15.01.2019 18:00:00 13,0 5,4 5 3 WSW 1019,7 - 0,0
15.01.2019 17:00:00 14,8 5,3 5 3 W 1019,4 - 0,0
15.01.2019 16:00:00 14,7 5,2 8 4 W 1019,4 25 -
15.01.2019 15:00:00 13,9 5,3 4 2 W 1019,7 - 0,0
15.01.2019 14:00:00 12,7 4,6 2 1 SW 1020,6 - 0,0
15.01.2019 13:00:00 9,2 4,2 4 2 NE 1021,8 12 -
15.01.2019 12:00:00 5,8 3,3 2 1 NE 1022,9 - 0,0
15.01.2019 11:00:00 3,3 2,3 4 2 ENE 1023,1 - 0,0
15.01.2019 10:00:00 0,1 -0,2 2 1 NW 1022,9 6 -
15.01.2019 09:00:00 -0,2 -0,6 4 2 NNE 1022,3 - 0,0
15.01.2019 08:00:00 0,1 -0,3 2 1 WSW 1022,1 - 0,0
15.01.2019 07:00:00 0,0 -0,4 2 1 ENE 1021,8 1,3 -
15.01.2019 06:00:00 0,4 -0,3 2 1 NW 1021,7 - 0,0
15.01.2019 05:00:00 0,9 0,3 2 1 SSE 1021,9 - 0,0
15.01.2019 04:00:00 1,4 0,7 2 1 W 1022,2 - -
15.01.2019 03:00:00 2,0 0,8 2 1 NW 1022,3 - 0,0
15.01.2019 02:00:00 2,6 1,3 4 2 E 1022,3 - 0,0
15.01.2019 01:00:00 3,1 1,8 4 2 E 1022,6 - -
15.01.2019 00:00:00 3,0 1,4 5 3 ESE 1022,8 - 0,0
14.01.2019 23:00:00 3,7 1,4 2 1 SE 1022,7 - 0,0
14.01.2019 22:00:00 4,4 1,4 4 2 NNW 1022,5 - -
14.01.2019 21:00:00 6,1 2,4 2 1 N 1022,1 - 0,0
14.01.2019 20:00:00 8,4 3,0 4 2 S 1022,0 - 0,0
14.01.2019 19:00:00 10,5 3,7 2 1 WSW 1021,8 40 -
14.01.2019 18:00:00 13,8 3,5 2 1 WNW 1021,9 - 0,0
14.01.2019 17:00:00 14,6 3,1 4 2 NW 1022,0 - 0,0
14.01.2019 16:00:00 14,6 3,4 4 2 WNW 1022,3 25 -
14.01.2019 15:00:00 13,4 4,3 2 1 SW 1022,9 - 0,0
14.01.2019 14:00:00 11,1 3,6 4 2 N 1023,9 - 0,0
14.01.2019 13:00:00 8,7 2,9 4 2 NNE 1025,3 15 -
14.01.2019 12:00:00 5,5 2,0 4 2 ENE 1026,8 - 0,0
14.01.2019 11:00:00 2,7 0,8 4 2 E 1027,1 - 0,0
14.01.2019 10:00:00 -0,7 -1,0 0 0 N 1027,0 8 -
14.01.2019 09:00:00 -2,4 -3,0 2 1 WNW 1027,0 - 0,0
14.01.2019 08:00:00 -2,3 -2,9 2 1 WSW 1026,8 - 0,0
14.01.2019 07:00:00 -1,8 -2,4 4 2 ESE 1026,4 8 -
14.01.2019 06:00:00 -2,1 -2,8 4 2 SE 1026,7 - 0,0
14.01.2019 05:00:00 -1,8 -2,5 4 2 E 1026,8 - 0,0
14.01.2019 04:00:00 -1,1 -1,9 2 1 NNE 1027,4 - -
14.01.2019 03:00:00 0,0 -0,9 2 1 SSW 1027,4 - 0,0
14.01.2019 02:00:00 0,5 -0,5 2 1 S 1027,5 - 0,0
14.01.2019 01:00:00 1,0 -0,3 4 2 WNW 1028,0 - -
14.01.2019 00:00:00 1,8 0,0 0 0 N 1028,1 - 0,0
13.01.2019 23:00:00 4,0 1,7 4 2 SSE 1027,9 - 0,0
13.01.2019 22:00:00 3,9 1,1 2 1 WSW 1028,1 - -
13.01.2019 21:00:00 5,8 1,3 4 2 WSW 1027,9 - 0,0
13.01.2019 20:00:00 7,5 1,8 4 2 WSW 1027,6 - 0,0
13.01.2019 19:00:00 10,1 2,9 4 2 W 1027,4 20 -
13.01.2019 18:00:00 12,8 2,6 5 3 N 1026,9 - 0,0
13.01.2019 17:00:00 14,3 2,2 8 4 NNE 1026,5 - 0,0
13.01.2019 16:00:00 14,1 2,0 5 3 ENE 1027,0 20 -
13.01.2019 15:00:00 13,2 3,3 5 3 ENE 1027,6 - 0,0
13.01.2019 14:00:00 11,5 3,5 5 3 ENE 1028,7 - 0,0
13.01.2019 13:00:00 9,1 3,7 8 4 E 1030,0 20 -
13.01.2019 12:00:00 5,7 2,2 8 4 ENE 1031,5 - 0,0
13.01.2019 11:00:00 1,8 0,0 5 3 NE 1032,1 - 0,0
13.01.2019 10:00:00 -1,6 -2,0 4 2 ESE 1031,8 15 -
13.01.2019 09:00:00 -3,6 -4,7 4 2 NNE 1031,4 - 0,0
13.01.2019 08:00:00 -3,0 -3,8 2 1 S 1030,9 - 0,0
13.01.2019 07:00:00 -2,5 -3,3 2 1 S 1030,6 10 -
13.01.2019 06:00:00 -2,5 -3,3 2 1 WSW 1030,6 - 0,0
13.01.2019 05:00:00 -2,0 -3,0 4 2 ESE 1030,6 - 0,0
13.01.2019 04:00:00 -1,8 -2,9 8 4 E 1030,9 - -
13.01.2019 03:00:00 -0,9 -1,9 4 2 E 1030,7 - 0,0
13.01.2019 02:00:00 -0,5 -1,6 2 1 W 1030,5 - 0,0
13.01.2019 01:00:00 0,6 -1,3 2 1 E 1030,7 - -
13.01.2019 00:00:00 1,4 -0,5 2 1 SSW 1030,9 - 0,0
12.01.2019 23:00:00 2,1 -0,3 2 1 WNW 1030,8 - 0,0
12.01.2019 22:00:00 4,3 0,6 2 1 SSW 1030,2 - -
12.01.2019 21:00:00 5,8 0,9 4 2 S 1030,0 - 0,0
12.01.2019 20:00:00 7,0 1,7 2 1 W 1029,7 - 0,0
12.01.2019 19:00:00 9,4 2,0 4 2 NNW 1029,2 20 -
12.01.2019 18:00:00 11,9 1,8 5 3 NE 1028,7 - 0,0
12.01.2019 17:00:00 13,4 1,1 11 6 ENE 1028,4 - 0,0
12.01.2019 16:00:00 13,0 1,3 11 6 NNE 1028,5 25 -
12.01.2019 15:00:00 12,4 0,8 11 6 NE 1028,8 - 0,0
12.01.2019 14:00:00 10,5 -0,1 8 4 ENE 1029,5 - 0,0
12.01.2019 13:00:00 8,2 -0,1 8 4 ENE 1030,6 25 -

tt = Température de l'air
td = dewpoint
ff = Vitesse du vent
dd = Direction du vent
ppp = reduced air pressure
vv = visibility
rr = Quantités de précipitations

stations d'obs. à proximité